Location: Clinton NY
(43.0598°N, 75.3602°W)
Time: 03:10:22
(UTC-04:00)

Iridium 11 - Visible Passes

Search period start: 24 May 2015 00:00
Search period end: 03 June 2015 00:00
Orbit: 776 x 779 km, 86.4° (Epoch: 23 May)

Date Brightness Start Highest point End Pass type
(mag) Time Alt. Az. Time Alt. Az. Time Alt. Az.
24 May 7.7 21:25:54 10° ENE 21:26:08 10° ENE 21:26:44 10° ENE visible
24 May 5.4 23:04:17 42° S 23:06:08 86° E 23:11:23 10° N visible
25 May 8.0 00:45:46 10° W 00:47:45 12° WNW 00:49:24 10° NW visible
25 May 5.9 22:30:35 31° SE 22:32:40 47° E 22:37:41 10° NNE visible
26 May 7.5 00:11:01 15° WSW 00:13:44 21° WNW 00:17:35 10° NNW visible
26 May 6.7 21:56:51 18° ESE 21:59:18 27° E 22:03:39 10° NNE visible
26 May 6.7 23:37:18 23° SW 23:39:54 37° W 23:44:43 10° NNW visible
27 May 7.3 21:23:18 10° ESE 21:26:02 15° ENE 21:29:01 10° NE visible
27 May 5.8 23:03:33 29° SSW 23:06:15 67° W 23:11:28 10° N visible
28 May 5.5 22:29:48 26° SSE 22:32:43 69° E 22:37:55 10° N visible
29 May 7.9 00:11:05 10° WSW 00:14:07 15° WNW 00:16:55 10° NW visible
29 May 6.2 21:56:01 18° SE 21:59:18 37° E 22:04:07 10° NNE visible
29 May 7.3 23:36:28 13° SW 23:40:11 26° WNW 23:44:30 10° NNW visible
30 May 6.9 21:22:14 10° SE 21:25:58 21° E 21:29:55 10° NNE visible
30 May 6.4 23:02:40 17° SSW 23:06:26 46° W 23:11:26 10° N visible
31 May 5.5 22:28:51 18° S 22:32:49 84° W 22:38:04 10° N visible
01 Jun 8.3 00:13:53 10° WNW 00:14:33 10° WNW 00:14:51 10° WNW visible
01 Jun 5.7 21:55:01 14° SSE 21:59:20 54° E 22:04:26 10° NNE visible
01 Jun 7.8 23:36:48 10° WSW 23:40:30 19° WNW 23:44:03 10° NNW visible
02 Jun 6.5 21:21:31 10° SE 21:25:57 30° E 21:30:29 10° NNE visible
02 Jun 7.0 23:01:58 10° SW 23:06:38 33° W 23:11:18 10° NNW visible
